(181150) = 2000 SQ219 = 2005 RD7

Discovered at Anderson Mesa on 2005-09-06 by LONEOS.

Orbit

Orbit type: Main Belt

Note: WebGL enabled browser required.

epoch2024-03-31.0
epoch JD2460400.5
perihelion date2023-10-17.90452
perihelion JD2460235.40452
argument of perihelion (°)277.79146
ascending node (°)183.57709
inclination (°)18.83978
eccentricity0.1074723
perihelion distance (AU)2.7973009
Tisserand w.r.t. Jupiter3.1
ΔV w.r.t. Earth (km/sec)11.9
semimajor axis (AU)3.1341334
mean anomaly (°)29.32669
mean daily motion (°/day)0.17763470
aphelion distance (AU)3.471
period (years)5.55
P-vector [x]-0.19380740
P-vector [y]0.97814095
P-vector [z]0.07535894
Q-vector [x]-0.98083269
Q-vector [y]-0.19161645
Q-vector [z]-0.03536058
absolute magnitude14.82
phase slope0.15
uncertainty0
referenceE2024-GI3
observations used983
oppositions18
arc length (days)8599
first opposition used2000
last opposition used2024
residual rms (arc-secs)0.68
perturbers coarse indicatorM-v
perturbers precise indicator003Ek
first observation date used2000-09-26.0
last observation date used2024-04-12.0
computer nameMPCLINUX
JD of orbit computation2456937.228618
perihelion JD uncertainty (days)1.3906E-04
argument of perihelion uncertainty (°)2.5473E-05
ascending node uncertainty (°)9.1323E-06
inclination uncertainty (°)5.2686E-06
eccentricity uncertainty 2.9264E-08
perihelion distance uncertainty (AU)8.2401E-08
Minimum Orbit Intersection Distances (in AU)
for orbit epoch: 2460400.5, reference: E2024-GI3
Mercury2.51454
Venus2.13605
Earth1.89038
Mars1.31122
Jupiter1.78762
Saturn6.29606
Uranus15.4107
Neptune26.7134

Observations

988 total observations over interval: 2000 09 26.34088 – 2024 02 12.933700
These data are available for download (format description).

Date (UT) J2000 RA J2000 Dec Magn Location Ref
2000 09 26.34088 02 54 20.12 +04 15 51.7 19.1   704 – Lincoln Laboratory ETS, New Mexico MPS 20152
2000 09 26.35553 02 54 19.88 +04 15 43.7 19.4   704 – Lincoln Laboratory ETS, New Mexico MPS 20152
2000 09 26.37038 02 54 19.65 +04 15 36.1 19.3   704 – Lincoln Laboratory ETS, New Mexico MPS 20152
2000 09 26.39956 02 54 19.30 +04 15 20.5 19.4   704 – Lincoln Laboratory ETS, New Mexico MPS 20152
2000 10 01.33109 02 52 55.57 +03 29 30.3 18.9   704 – Lincoln Laboratory ETS, New Mexico MPS 20152
2000 10 01.34760 02 52 55.19 +03 29 20.4 19.3   704 – Lincoln Laboratory ETS, New Mexico MPS 20152
2000 10 01.36282 02 52 54.92 +03 29 12.1 19.1   704 – Lincoln Laboratory ETS, New Mexico MPS 20152
2000 10 01.37734 02 52 54.66 +03 29 03.5 19.3   704 – Lincoln Laboratory ETS, New Mexico MPS 20152
2000 10 01.39259 02 52 54.36 +03 28 55.7 19.5   704 – Lincoln Laboratory ETS, New Mexico MPS 20152
2000 11 19.22805 02 22 44.93 -03 30 35.3 19.0 R 699 – Lowell Observatory-LONEOS MPS 146115
2000 11 19.25145 02 22 44.13 -03 30 42.9   699 – Lowell Observatory-LONEOS MPS 146115
2000 11 19.27485 02 22 43.03 -03 30 48.1   699 – Lowell Observatory-LONEOS MPS 146115
2000 11 19.29830 02 22 42.25 -03 30 56.4   699 – Lowell Observatory-LONEOS MPS 146115
2000 11 25.21513 02 19 22.92 -03 57 12.6 18.5   704 – Lincoln Laboratory ETS, New Mexico MPS 146115
2000 11 25.26079 02 19 21.41 -03 57 23.8 19.3   704 – Lincoln Laboratory ETS, New Mexico MPS 146115
2000 11 25.27602 02 19 20.96 -03 57 28.0 19.4   704 – Lincoln Laboratory ETS, New Mexico MPS 146115
2002 02 08.29442 09 23 45.92 -04 56 20.2 18.9   644 – Palomar Mountain/NEAT MPS 146115
2002 02 08.31537 09 23 45.00 -04 56 10.1 18.6   644 – Palomar Mountain/NEAT MPS 146115
2002 02 08.33635 09 23 44.02 -04 56 00.0 18.6   644 – Palomar Mountain/NEAT MPS 146115
2002 02 15.25626 09 18 45.84 -03 56 23.5 18.9   704 – Lincoln Laboratory ETS, New Mexico MPS 146115
2002 02 15.27095 09 18 45.18 -03 56 15.9 19.2   704 – Lincoln Laboratory ETS, New Mexico MPS 146115
2002 02 15.28585 09 18 44.56 -03 56 07.9 19.1   704 – Lincoln Laboratory ETS, New Mexico MPS 146115
2002 02 15.30021 09 18 43.91 -03 55 59.5 19.7   704 – Lincoln Laboratory ETS, New Mexico MPS 146115
2002 02 15.31455 09 18 43.27 -03 55 51.6 19.2   704 – Lincoln Laboratory ETS, New Mexico MPS 146115
2003 04 25.36017 15 13 44.41 -00 16 25.1 19.4 R 699 – Lowell Observatory-LONEOS MPS 146115
2003 04 25.37342 15 13 43.88 -00 16 20.3   699 – Lowell Observatory-LONEOS MPS 146115
2003 04 25.38670 15 13 43.31 -00 16 14.4   699 – Lowell Observatory-LONEOS MPS 146115
2003 04 25.39996 15 13 42.73 -00 16 08.1   699 – Lowell Observatory-LONEOS MPS 146115
2005 09 06.19136 23 41 30.02 +03 49 21.1 19.0 R 699 – Lowell Observatory-LONEOS MPS 141795
2005 09 06.21312 23 41 29.26 +03 49 10.0   699 – Lowell Observatory-LONEOS MPS 141795
2005 09 06.23490 23 41 28.43 +03 48 58.8   699 – Lowell Observatory-LONEOS MPS 141795
2005 09 06.25663 23 41 27.48 +03 48 47.1   699 – Lowell Observatory-LONEOS MPS 141795
2005 09 09.29673 23 39 32.79 +03 22 29.7 19.3   704 – Lincoln Laboratory ETS, New Mexico MPS 141795
2005 09 09.30792 23 39 32.34 +03 22 23.4 19.9   704 – Lincoln Laboratory ETS, New Mexico MPS 141795
2005 09 09.31914 23 39 31.89 +03 22 18.7 19.7   704 – Lincoln Laboratory ETS, New Mexico MPS 141795
2005 09 09.33029 23 39 31.45 +03 22 11.9 19.6   704 – Lincoln Laboratory ETS, New Mexico MPS 141795
2005 09 14.29983 23 36 18.20 +02 37 23.4 19.5 V 691 – Steward Observatory, Kitt Peak-Spacewatch MPS 141795
2005 09 14.31798 23 36 17.45 +02 37 13.3 19.4 V 691 – Steward Observatory, Kitt Peak-Spacewatch MPS 141795
2005 09 14.33898 23 36 16.59 +02 37 02.3 19.3 V 691 – Steward Observatory, Kitt Peak-Spacewatch MPS 141795
2005 09 23.34579 23 30 22.71 +01 12 24.4 19.3 V 703 – Catalina Sky Survey MPS 142251
2005 09 23.35355 23 30 22.32 +01 12 20.4 18.5 V 703 – Catalina Sky Survey MPS 142251
2005 09 23.36129 23 30 22.10 +01 12 15.0 19.0 V 703 – Catalina Sky Survey MPS 142251
2005 09 23.36902 23 30 21.74 +01 12 10.3 18.9 V 703 – Catalina Sky Survey MPS 142251
2005 09 24.247777 23 29 48.119 +01 03 50.58 19.44 V 645 – Apache Point-Sloan Digital Sky Survey MPS 390162
2005 09 24.251249 23 29 47.978 +01 03 48.57 20.12   645 – Apache Point-Sloan Digital Sky Survey MPS 390162
2005 09 25.288437 23 29 08.253 +00 53 57.55 19.38 V 645 – Apache Point-Sloan Digital Sky Survey MPS 390162
2005 09 25.291909 23 29 08.114 +00 53 55.59 20.11   645 – Apache Point-Sloan Digital Sky Survey MPS 390162
2005 09 26.292247 23 28 30.197 +00 44 26.01 19.40 V 645 – Apache Point-Sloan Digital Sky Survey MPS 390162
2005 09 26.295719 23 28 30.062 +00 44 24.07 20.13   645 – Apache Point-Sloan Digital Sky Survey MPS 390162
2005 10 01.23776 23 25 29.31 -00 02 05.8 18.9 V 703 – Catalina Sky Survey MPS 144087
2005 10 01.24630 23 25 29.10 -00 02 10.3 19.5 V 703 – Catalina Sky Survey MPS 144087
2005 10 01.25483 23 25 28.66 -00 02 16.0 18.9 V 703 – Catalina Sky Survey MPS 144087
2005 10 01.26334 23 25 28.38 -00 02 19.6 19.2 V 703 – Catalina Sky Survey MPS 144087
2005 10 22.17028 23 16 09.44 -02 57 14.1 20.8 V 703 – Catalina Sky Survey MPS 146115
2005 10 22.17929 23 16 09.30 -02 57 16.6 19.5 V 703 – Catalina Sky Survey MPS 146115
2005 10 22.18835 23 16 09.01 -02 57 21.1 19.5 V 703 – Catalina Sky Survey MPS 146115
2005 10 22.19736 23 16 08.97 -02 57 25.2 19.8 V 703 – Catalina Sky Survey MPS 146115
2005 10 25.17900 23 15 25.52 -03 17 48.9 19.5 V G96 – Mt. Lemmon Survey MPS 146115
2005 10 25.18500 23 15 25.45 -03 17 51.5 19.7 V G96 – Mt. Lemmon Survey MPS 146115
2005 10 25.19099 23 15 25.38 -03 17 54.2 19.4 V G96 – Mt. Lemmon Survey MPS 146115
2005 10 25.19700 23 15 25.27 -03 17 56.7 19.7 V G96 – Mt. Lemmon Survey MPS 146115
2007 02 07.114046 05 18 03.366 -01 17 05.88 19.97 V 645 – Apache Point-Sloan Digital Sky Survey MPS 390162
2007 02 07.117518 05 18 03.381 -01 17 04.21 20.63   645 – Apache Point-Sloan Digital Sky Survey MPS 390162
2008 02 11.45590 12 39 46.94 -07 28 44.4 19.7 V G96 – Mt. Lemmon Survey MPS 237563
2008 02 11.46433 12 39 46.87 -07 28 41.8 19.6 V G96 – Mt. Lemmon Survey MPS 237563
2008 02 11.47266 12 39 46.80 -07 28 39.7 19.4 V G96 – Mt. Lemmon Survey MPS 237563
2008 02 11.48109 12 39 46.76 -07 28 36.8 19.5 V G96 – Mt. Lemmon Survey MPS 237563
2008 02 27.34017 12 35 43.70 -05 45 53.1 19.4 V 691 – Steward Observatory, Kitt Peak-Spacewatch MPS 239444
2008 02 27.35777 12 35 43.23 -05 45 44.9 19.6 V 691 – Steward Observatory, Kitt Peak-Spacewatch MPS 239444
2008 02 27.37537 12 35 42.80 -05 45 36.5 19.5 V 691 – Steward Observatory, Kitt Peak-Spacewatch MPS 239444
2008 03 04.33372 12 32 58.54 -04 55 56.1 18.9   704 – Lincoln Laboratory ETS, New Mexico MPS 240748
2008 03 04.34503 12 32 58.16 -04 55 50.8 19.1   704 – Lincoln Laboratory ETS, New Mexico MPS 240748
2008 03 04.35633 12 32 57.80 -04 55 45.2 18.9   704 – Lincoln Laboratory ETS, New Mexico MPS 240748
2008 03 04.36762 12 32 57.45 -04 55 38.8 19.1   704 – Lincoln Laboratory ETS, New Mexico MPS 240748
2008 03 04.37894 12 32 57.07 -04 55 32.2 19.3   704 – Lincoln Laboratory ETS, New Mexico MPS 240748
2008 03 06.28860 12 31 57.47 -04 38 33.4 19.0 V 691 – Steward Observatory, Kitt Peak-Spacewatch MPS 240748
2008 03 06.30376 12 31 56.91 -04 38 24.9 19.3 V 691 – Steward Observatory, Kitt Peak-Spacewatch MPS 240748
2008 03 06.31894 12 31 56.41 -04 38 16.8 19.4 V 691 – Steward Observatory, Kitt Peak-Spacewatch MPS 240748
2008 03 10.27658 12 29 43.35 -04 01 38.2 19.3 V 691 – Steward Observatory, Kitt Peak-Spacewatch MPS 242131
2008 03 10.29429 12 29 42.70 -04 01 28.1 19.2 V 691 – Steward Observatory, Kitt Peak-Spacewatch MPS 242131
2008 03 10.31199 12 29 42.06 -04 01 18.1 19.2 V 691 – Steward Observatory, Kitt Peak-Spacewatch MPS 242131
2008 03 11.31121 12 29 06.69 -03 51 46.8   291 – LPL/Spacewatch II MPS 242131
2008 03 11.31827 12 29 06.43 -03 51 42.7   291 – LPL/Spacewatch II MPS 242131
2008 03 11.32402 12 29 06.22 -03 51 39.5   291 – LPL/Spacewatch II MPS 242131
2008 03 11.32440 12 29 06.26 -03 51 38.9 18.5   704 – Lincoln Laboratory ETS, New Mexico MPS 242131
2008 03 11.33551 12 29 05.83 -03 51 33.1 18.9   704 – Lincoln Laboratory ETS, New Mexico MPS 242131
